Lid_Strength_Index
-1 -1 -1 -1 -1 -1 -2 -2 -2 -1 -0 0 -0 -1 -1 -0 1 4 6 4 2 -1 1 4 4 4 4 5 5 5 9 10 10 10 9 8 8 7 6 6 5 4 5 3 2
-1 -1 -2 -1 -1 -2 -2 -1 -2 -1 -1 0 0 -0 -0 0 4 6 3 0 0 -0 4 5 6 5 6 6 5 6 9 10 9 9 9 8 8 8 8 7 6 5 3 3 2
-1 -1 -1 -1 -1 -1 -1 -1 -1 -1 -1 -0 -0 -1 0 2 5 6 1 1 0 1 4 4 5 6 7 6 7 7 9 9 9 8 9 9 8 8 8 8 7 7 6 3 3
-2 -1 -1 -1 -1 -1 -1 -1 -1 -1 -1 -1 -0 -0 1 4 9 5 1 1 1 3 5 5 6 7 8 9 8 9 9 8 9 9 9 9 8 9 8 7 7 5 5 3 4
-1 -1 -1 -1 -1 -1 -1 -1 -1 -1 -1 -1 -1 1 3 6 7 4 1 2 3 4 5 6 7 7 9 9 8 9 9 9 9 8 9 8 9 9 8 7 6 3 4 4 4
-0 -1 -1 -1 -0 -1 -1 -2 -2 -1 -1 -1 -0 2 4 9 5 3 4 4 4 4 5 5 6 6 8 9 8 9 9 9 9 9 9 9 9 9 8 8 6 4 4 4 4
-0 -0 -0 0 -0 -1 -0 -1 -1 -1 -1 -0 1 4 6 8 4 3 4 5 4 4 5 5 5 6 7 9 8 9 10 9 9 9 9 9 9 10 8 8 7 5 4 4 3
-0 0 0 0 0 -0 -0 -1 -0 1 1 1 2 3 8 5 3 4 3 4 3 4 5 4 5 6 7 7 8 10 10 11 10 9 9 9 11 9 8 8 8 7 5 4 3
-0 0 0 1 1 1 1 0 0 1 1 1 3 4 8 2 5 4 4 5 4 4 4 5 5 7 7 9 9 8 11 11 10 9 10 9 10 8 8 8 7 7 7 6 5
-0 -0 0 1 1 2 2 2 1 2 2 4 4 5 6 7 5 5 4 4 5 5 5 6 6 7 8 9 13 12 12 11 11 11 11 10 10 8 7 8 8 7 8 8 8
0 0 1 0 1 2 2 2 4 6 6 8 8 8 7 5 4 5 4 5 5 5 8 7 9 11 11 11 11 11 11 12 11 11 12 11 11 10 9 8 8 8 8 8 8
1 1 1 0 1 1 1 5 6 5 9 7 7 8 7 7 8 7 5 7 8 9 8 8 12 11 11 11 11 11 12 12 11 11 12 11 12 9 9 10 9 9 8 7 7
1 1 1 1 2 2 4 5 3 4 7 8 7 8 8 6 9 8 7 7 9 9 9 10 11 10 10 11 11 11 12 13 14 12 11 12 11 11 10 10 9 9 9 8 8
3 2 2 2 2 3 5 3 3 4 11 10 8 7 7 7 9 7 7 7 8 12 10 11 10 11 11 13 12 12 12 13 13 13 13 12 13 11 11 10 10 9 9 9 8
3 3 3 2 3 5 5 3 3 4 18 10 9 5 6 9 9 8 6 7 10 11 9 12 12 11 12 13 12 13 12 13 13 14 14 14 14 11 11 12 11 10 9 9 8
4 4 3 3 3 5 4 3 5 13 16 13 9 10 10 9 10 8 8 7 8 10 10 12 11 12 13 12 12 12 14 14 14 13 17 19 16 12 13 13 12 11 10 10 9
4 5 5 5 5 4 4 5 13 17 12 12 12 11 12 12 12 11 11 12 13 14 13 13 13 12 12 13 12 12 13 18 18 17 16 20 18 13 13 13 12 12 11 10 10
4 5 7 7 5 4 5 9 15 14 13 12 12 12 13 13 12 12 12 13 12 13 13 14 15 14 13 14 15 15 15 15 19 18 17 21 17 14 13 12 12 11 11 11 11
5 4 5 7 6 5 7 14 14 12 12 12 12 13 13 13 14 13 13 13 13 13 14 15 14 14 15 14 15 15 14 16 18 24 20 16 14 13 13 13 13 13 13 13 12
5 6 7 7 6 5 13 14 13 13 12 12 14 14 14 13 14 13 15 13 14 13 13 15 15 16 15 14 15 15 15 16 16 20 20 16 17 15 15 15 15 15 14 14 13
5 6 7 7 6 9 14 15 14 12 12 13 14 14 15 14 15 15 15 14 13 14 14 15 15 15 17 16 15 16 16 17 17 18 19 20 17 14 15 16 16 15 14 14 13
6 11 7 7 12 15 15 14 13 13 11 12 13 14 14 15 15 15 15 14 12 13 15 14 16 17 14 16 15 16 15 15 17 18 18 20 18 14 15 15 15 15 14 13 13
7 7 6 6 13 14 15 14 13 13 13 13 14 13 14 14 16 16 15 13 12 14 15 14 15 17 16 18 17 18 16 16 17 17 19 19 17 16 14 14 14 15 14 13 13
7 12 10 9 10 11 13 14 14 12 13 13 13 13 14 16 16 16 16 14 13 13 13 14 16 17 18 16 17 18 17 17 17 18 18 17 16 15 15 17 16 15 14 13 13
8 11 12 14 10 12 12 13 14 14 13 12 14 14 14 16 16 17 15 15 14 13 14 15 18 18 17 16 18 19 19 17 19 18 19 18 18 15 17 17 17 16 13 14 15
7 8 11 12 12 12 13 14 14 14 13 14 15 13 13 15 15 16 15 16 16 14 15 15 18 21 20 19 19 21 19 18 19 18 18 18 19 17 16 15 15 15 15 15 15
9 10 9 12 12 12 10 12 13 13 13 13 13 13 14 13 12 13 13 14 14 15 16 17 17 19 20 22 22 21 19 18 18 18 18 21 18 17 18 17 17 15 14 15 15